Weather History for Covington, KY

Change the Weather History Date:

Monday, December 3, 2012

  Actual Average Record
Temperature  
Mean Temperature 64 °F 38 °F  
Max Temperature 71 °F 46 °F 75 °F (1982)
Min Temperature 57 °F 30 °F -3 °F (1886)
Degree Days  
Heating Degree Days 1 27  
Month to date heating degree days 20 80  
Since 1 July heating degree days 1126 1040  
Cooling Degree Days 0 0  
Month to date cooling degree days 0 0  
Year to date cooling degree days 1439 1121  
Growing Degree Days 14 (Base 50)    
Moisture  
Dew Point 55 °F    
Average Humidity 77    
Maximum Humidity 93    
Minimum Humidity 61    
Precipitation  
Precipitation 0.02 in 0.11 in 2.47 in (1873)
Month to date precipitation 0.67 0.32  
Year to date precipitation 33.70 39.47  
Snow  
Snow 0.00 in 0.10 in 1.50 in (1910)
Month to date snowfall 0.0 0.3  
Since 1 July snowfall T 1.1  
Snow Depth 0.00 in    
Sea Level Pressure  
Sea Level Pressure 30.11 in    
Wind  
Wind Speed 9 mph (South)    
Max Wind Speed 17 mph    
Max Gust Speed 23 mph    
Visibility 9 miles    
Events Rain    
T = Trace of Precipitation, MM = Missing Value Source: NWS Daily Summary

Daily Weather History Graph

Daily Weather History Graph

Search for Another Location

Airport:

Trip Planner

Search our weather history database for the weather conditions in past years. The results will help you decide how hot, cold, wet, or windy it might be!

Date:

Astronomy

Dec. 03, 2012 Rise Set
Actual Time 7:41 AM EST 5:16 PM EST
Civil Twilight 7:11 AM EST 5:45 PM EST
Nautical Twilight 6:38 AM EST 6:19 PM EST
Astronomical Twilight 6:05 AM EST 6:51 PM EST
Moon 10:00 PM EST (12/3) 11:04 AM EST (12/3)
Length of Visible Light 10h 34m
Length of Day
9h 35m
Waning Gibbous, 78% of the Moon is Illuminated
Dec 3
Waning Gibbous
Dec 6
Last Quarter
Dec 13
New
Dec 20
First Quarter
Dec 28
Full

Hourly Weather History & Observations

Time (EST) Temp. Dew Point Humidity Pressure Visibility Wind Dir Wind Speed Gust Speed Precip Events Conditions
12:33 AM 57.2 °F 57.2 °F 100% 30.14 in 3.0 mi South 3.5 mph - 0.00 in   Overcast
12:52 AM 57.9 °F 55.9 °F 93% 30.13 in 4.0 mi South 6.9 mph - 0.00 in   Overcast
2:52 AM 59.0 °F 55.9 °F 90% 30.13 in 10.0 mi South 5.8 mph - 0.00 in   Overcast
3:52 AM 57.9 °F 55.0 °F 90% 30.12 in 10.0 mi South 8.1 mph - N/A   Mostly Cloudy
4:28 AM 59.0 °F 55.4 °F 88% 30.13 in 10.0 mi SSW 6.9 mph - N/A   Mostly Cloudy
4:52 AM 59.0 °F 55.0 °F 87% 30.12 in 10.0 mi SSW 6.9 mph - N/A   Overcast
5:52 AM 57.9 °F 55.0 °F 90% 30.13 in 10.0 mi South 4.6 mph - N/A   Overcast
6:52 AM 57.9 °F 55.0 °F 90% 30.14 in 10.0 mi South 4.6 mph - N/A   Overcast
7:27 AM 57.2 °F 53.6 °F 88% 30.16 in 10.0 mi South 6.9 mph - N/A   Mostly Cloudy
7:52 AM 57.9 °F 54.0 °F 87% 30.15 in 10.0 mi South 6.9 mph - N/A   Overcast
8:41 AM 57.2 °F 53.6 °F 88% 30.16 in 10.0 mi South 10.4 mph - N/A   Overcast
8:52 AM 57.9 °F 54.0 °F 87% 30.15 in 7.0 mi South 8.1 mph - 0.01 in Rain Light Rain
9:17 AM 59.0 °F 55.4 °F 88% 30.16 in 10.0 mi South 6.9 mph - 0.00 in   Mostly Cloudy
9:52 AM 59.0 °F 55.0 °F 87% 30.15 in 10.0 mi South 8.1 mph - 0.00 in   Overcast
10:52 AM 63.0 °F 55.9 °F 78% 30.14 in 10.0 mi SSW 12.7 mph 18.4 mph N/A   Mostly Cloudy
11:52 AM 66.0 °F 55.9 °F 70% 30.12 in 10.0 mi SSW 12.7 mph - N/A   Mostly Cloudy
12:52 PM 66.9 °F 55.9 °F 68% 30.09 in 10.0 mi SSW 13.8 mph 20.7 mph N/A   Mostly Cloudy
1:52 PM 69.1 °F 57.0 °F 65% 30.08 in 10.0 mi South 12.7 mph - N/A   Mostly Cloudy
2:52 PM 70.0 °F 57.0 °F 63% 30.06 in 10.0 mi SSW 13.8 mph - N/A   Mostly Cloudy
3:52 PM 70.0 °F 55.9 °F 61% 30.06 in 10.0 mi South 10.4 mph - N/A   Mostly Cloudy
4:52 PM 68.0 °F 55.0 °F 63% 30.07 in 10.0 mi South 10.4 mph - N/A   Overcast
5:52 PM 64.9 °F 54.0 °F 68% 30.08 in 10.0 mi South 9.2 mph - N/A   Mostly Cloudy
6:52 PM 63.0 °F 53.1 °F 70% 30.08 in 10.0 mi South 8.1 mph - N/A   Mostly Cloudy
7:52 PM 62.1 °F 53.1 °F 72% 30.08 in 10.0 mi South 9.2 mph - N/A   Mostly Cloudy
8:52 PM 63.0 °F 52.0 °F 67% 30.07 in 10.0 mi SSW 11.5 mph - N/A   Scattered Clouds
9:52 PM 62.1 °F 51.1 °F 67% 30.07 in 10.0 mi South 11.5 mph - N/A   Mostly Cloudy
10:52 PM 63.0 °F 50.0 °F 63% 30.08 in 10.0 mi SSW 9.2 mph - N/A   Mostly Cloudy
11:52 PM 60.1 °F 50.0 °F 69% 30.09 in 10.0 mi South 9.2 mph - N/A   Mostly Cloudy